Curacao, Netherlands

6:58 AM AST on March 26, 2017 (GMT -0400)
Willemstad-Hato International

Weather History for TNCC - July, 2013

Change the Weather History Date:

Sunday, July 28, 2013

  Actual Average Record
Temperature  
Mean Temperature 84 °F -  
Max Temperature 89 °F 88 °F 92 °F (2014)
Min Temperature 78 °F 81 °F 75 °F (2010)
Cooling Degree Days 18    
Growing Degree Days 34 (Base 50)    
Moisture  
Dew Point 73 °F    
Average Humidity 72    
Maximum Humidity 89    
Minimum Humidity 42    
Precipitation  
Precipitation 0.00 in - - ()
Sea Level Pressure  
Sea Level Pressure 29.93 in    
Wind  
Wind Speed 11 mph ()    
Max Wind Speed 17 mph    
Max Gust Speed -    
Visibility 6.2 miles    
Events      
Averages and records for this station are not official NWS values.
T = Trace of Precipitation, MM = Missing Value Source: Averaged Metar Reports

Daily Weather History Graph

Daily Weather History Graph

Search for Another Location

Airport or City:

Trip Planner

Search our weather history database for the weather conditions in past years. The results will help you decide how hot, cold, wet, or windy it might be!

Date:

Astronomy

Jul. 28, 2013 Rise Set
Actual Time 6:21 AM AST 7:02 PM AST
Civil Twilight 5:59 AM AST 7:25 PM AST
Nautical Twilight 5:32 AM AST 7:51 PM AST
Astronomical Twilight 5:06 AM AST 8:18 PM AST
Moon 11:45 PM AST (7/28) 11:41 AM AST (7/28)
Length of Visible Light 13h 26m
Length of Day
12h 41m
Waning Gibbous, 61% of the Moon is Illuminated
Jul 28
Waning Gibbous
Jul 29
Last Quarter
Aug 6
New
Aug 14
First Quarter
Aug 20
Full

Hourly Weather History & Observations

Time (AST) Temp. Heat Index Dew Point Humidity Pressure Visibility Wind Dir Wind Speed Gust Speed Precip Events Conditions
12:00 AM 80.6 °F 84.6 °F 71.6 °F 74% 29.95 in 6.2 mi ESE 11.5 mph - N/A   Partly Cloudy
1:00 AM 80.6 °F 85.4 °F 73.4 °F 79% 29.92 in 6.2 mi ESE 11.5 mph - N/A   Partly Cloudy
2:00 AM 80 °F - 74 °F 77% 29.93 in 25 mi SE 10.4 mph - -   Scattered Clouds
2:00 AM 80.6 °F 85.4 °F 73.4 °F 79% 29.92 in 6.2 mi ESE 10.4 mph - N/A   Partly Cloudy
3:00 AM 80.6 °F 86.2 °F 75.2 °F 84% 29.92 in 6.2 mi ESE 12.7 mph - N/A   Partly Cloudy
4:00 AM 78.8 °F - 75.2 °F 89% 29.92 in 6.2 mi SE 10.4 mph - N/A   Partly Cloudy
5:00 AM 79 °F - 74 °F 82% 29.92 in 25 mi SSE 9.2 mph - -   Scattered Clouds
5:00 AM 78.8 °F - 75.2 °F 89% 29.92 in 6.2 mi SE 11.5 mph - N/A   Partly Cloudy
6:00 AM 78.8 °F - 73.4 °F 83% 29.92 in 6.2 mi SE 10.4 mph - N/A   Partly Cloudy
7:00 AM 78.8 °F - 73.4 °F 83% 29.92 in 6.2 mi SE 10.4 mph - N/A   Partly Cloudy
8:00 AM 83 °F - 73 °F 65%  in 25 mi SSE 11.5 mph - -  
8:00 AM 82.4 °F 87.2 °F 71.6 °F 70% 29.92 in 6.2 mi SE 15.0 mph - N/A   Partly Cloudy
9:00 AM 86.0 °F 89.4 °F 68.0 °F 55% 29.95 in 6.2 mi SE 16.1 mph - N/A   Partly Cloudy
10:00 AM 87.8 °F 92.6 °F 69.8 °F 55% 29.95 in 6.2 mi SE 16.1 mph - N/A   Partly Cloudy
11:00 AM 89 °F - 69 °F 42%  in 31 mi SE 11.5 mph - -   Scattered Clouds
11:00 AM 89.6 °F 93.4 °F 68.0 °F 49% 29.95 in 6.2 mi ESE 17.3 mph - N/A   Partly Cloudy
12:00 PM 87.8 °F 95.6 °F 73.4 °F 62% 29.95 in 6.2 mi East 15.0 mph - N/A   Partly Cloudy
1:00 PM 87.8 °F 95.6 °F 73.4 °F 62% 29.95 in 6.2 mi East 17.3 mph - N/A   Partly Cloudy
2:00 PM 87.8 °F 93.8 °F 71.6 °F 58% 29.92 in 6.2 mi East 16.1 mph - N/A   Partly Cloudy
3:00 PM 87.8 °F 95.6 °F 73.4 °F 62% 29.89 in 6.2 mi East 16.1 mph - N/A   Partly Cloudy
4:00 PM 86.0 °F 95.1 °F 75.2 °F 70% 29.89 in 6.2 mi East 16.1 mph - N/A   Partly Cloudy
5:00 PM 86.0 °F 93.4 °F 73.4 °F 66% 29.89 in 6.2 mi ESE 17.3 mph - N/A   Partly Cloudy
6:00 PM 84.2 °F 92.3 °F 75.2 °F 74% 29.89 in 6.2 mi East 13.8 mph - N/A   Partly Cloudy
7:00 PM 82.4 °F 89.5 °F 75.2 °F 79% 29.89 in 6.2 mi East 13.8 mph - N/A   Partly Cloudy
8:00 PM 82.4 °F 89.5 °F 75.2 °F 79% 29.92 in 6.2 mi East 12.7 mph - N/A   Partly Cloudy
9:00 PM 82.4 °F 89.5 °F 75.2 °F 79% 29.95 in 6.2 mi East 13.8 mph - N/A   Partly Cloudy
10:00 PM 80.6 °F 86.2 °F 75.2 °F 84% 29.95 in 6.2 mi East 13.8 mph - N/A   Partly Cloudy
11:00 PM 81 °F - 75 °F 78% 29.97 in 31 mi ESE 13.8 mph - -  
11:00 PM 80.6 °F 86.2 °F 75.2 °F 84% 29.95 in 6.2 mi East 15.0 mph - N/A   Partly Cloudy